This is the latest recevied weather packets stored in our database for station/object IU1OLT-5. If no packets are shown the sender has not sent any weather packets the latest 10 day(s).
| Time | Temp. | Humidity | Pressure | Rain* | Wind** | Luminosity | Snow |
|---|---|---|---|---|---|---|---|
| 1777794108 | 18.89° C | 59% | 1020.6 hPa | 0 mm | - | 392 W/m² | - |
| 1777793208 | 17.22° C | 59% | 1020.6 hPa | 0 mm | - | 389 W/m² | - |
| 1777792308 | 17.22° C | 58% | 1020.7 hPa | 0 mm | - | 331 W/m² | - |
| 1777791407 | 15° C | 59% | 1020.6 hPa | 0 mm | - | 297 W/m² | - |
| 1777790507 | 15° C | 59% | 1020.8 hPa | 0 mm | - | 228 W/m² | - |
| 1777789607 | 15° C | 58% | 1020.9 hPa | 0 mm | - | 158 W/m² | - |
| 1777788707 | 15° C | 57% | 1020.7 hPa | 0 mm | - | 155 W/m² | - |
| 1777787806 | 14.44° C | 53% | 1020.4 hPa | 0 mm | - | 158 W/m² | - |
| 1777786906 | 13.33° C | 53% | 1020.5 hPa | 0 mm | - | 93 W/m² | - |
| 1777786006 | 13.89° C | 49% | 1020.3 hPa | 0 mm | - | 97 W/m² | - |
| 1777785106 | 12.78° C | 52% | 1020.3 hPa | 0 mm | - | 65 W/m² | - |
| 1777784206 | 12.22° C | 54% | 1020 hPa | 0 mm | - | 48 W/m² | - |
| 1777783306 | 12.22° C | 54% | 1019.9 hPa | 0 mm | - | 29 W/m² | - |
| 1777782405 | 12.22° C | 54% | 1019.8 hPa | 0 mm | - | 10 W/m² | - |
| 1777781505 | 11.67° C | 55% | 1019.9 hPa | 0 mm | - | 2 W/m² | - |
| 1777780605 | 11.67° C | 54% | 1020 hPa | 0 mm | - | 0 W/m² | - |
| 1777779704 | 11.67° C | 55% | 1020.1 hPa | 0 mm | - | 0 W/m² | - |
| 1777778804 | 12.22° C | 54% | 1020.1 hPa | 0 mm | - | 0 W/m² | - |
| 1777777903 | 12.22° C | 54% | 1020.3 hPa | 0 mm | - | 0 W/m² | - |
| 1777777003 | 12.78° C | 52% | 1020 hPa | 0 mm | - | 0 W/m² | - |
| 1777776103 | 12.78° C | 51% | 1020.2 hPa | 0 mm | - | 0 W/m² | - |
| 1777775202 | 12.78° C | 53% | 1020.4 hPa | 0 mm | - | 0 W/m² | - |
| 1777774302 | 12.78° C | 52% | 1020.4 hPa | 0 mm | - | 0 W/m² | - |
| 1777773401 | 12.78° C | 52% | 1020.3 hPa | 0 mm | - | 0 W/m² | - |
| 1777772501 | 12.78° C | 53% | 1020.3 hPa | 0 mm | - | 0 W/m² | - |
* Rain latest hour (hover to see other rain measurements)
** Current wind speed in m/s (hover to see current wind gust speed)